Mt Rainier
Camp Muir
Latest observation 08/31 21:00 PDT
| Time (PDT) | Temp °F 10110' | RH % 10110' | Min mph 10110' | Spd mph 10110' | Gust mph 10110' | Dir ° 10110' | SR W/m² 10110' |
|---|---|---|---|---|---|---|---|
| 08/31 21:00 | 41 | 57 | 11 | 20 | 29 | 217 | 15 |
| 08/31 20:00 | 42 | 59 | 11 | 20 | 28 | 217 | 139 |
| 08/31 19:00 | 44 | 54 | 16 | 24 | 32 | 216 | 362 |
| 08/31 18:00 | 43 | 49 | 12 | 20 | 26 | 207 | 339 |
| 08/31 17:00 | 44 | 49 | 11 | 17 | 24 | 210 | 700 |
| 08/31 16:00 | 44 | 40 | 11 | 17 | 23 | 208 | 829 |
| 08/31 15:00 | 43 | 47 | 12 | 17 | 23 | 207 | 869 |
| 08/31 14:00 | 43 | 29 | 11 | 14 | 21 | 212 | 837 |
| 08/31 13:00 | 43 | 57 | 10 | 13 | 17 | 213 | 275 |
| 08/31 12:00 | 41 | 66 | 11 | 15 | 18 | 206 | 58 |
| 08/31 11:00 | 40 | 68 | 9 | 12 | 15 | 200 | 302 |
| 08/31 10:00 | 40 | 67 | 9 | 12 | 16 | 210 | 347 |
| 08/31 09:00 | 40 | 61 | 8 | 13 | 17 | 219 | 108 |
| 08/31 08:00 | 39 | 64 | 10 | 14 | 19 | 219 | 20 |
| 08/31 07:00 | 38 | 68 | 7 | 13 | 17 | 215 | 4 |
| 08/31 06:00 | 37 | 75 | 8 | 13 | 17 | 216 | 4 |
| 08/31 05:00 | 37 | 74 | 8 | 14 | 20 | 216 | 4 |
| 08/31 04:00 | 36 | 77 | 9 | 13 | 18 | 216 | 4 |
| 08/31 03:00 | 37 | 75 | 7 | 12 | 17 | 215 | 4 |
| 08/31 02:00 | 37 | 76 | 0 | 2 | 13 | 288 | 4 |
| 08/31 01:00 | 37 | 74 | 0 | 0 | 0 | 356 | 4 |
| 08/31 00:00 | 37 | 75 | 0 | 1 | 6 | 343 | 4 |
| 08/30 23:00 | 37 | 74 | 0 | 0 | 6 | 349 | 4 |
| 08/30 22:00 | 38 | 72 | 0 | 2 | 7 | 341 | 4 |
| 08/30 21:00 | 38 | 79 | 0 | 1 | 4 | 212 | 13 |
| 08/30 20:00 | 38 | 76 | 0 | 2 | 10 | 202 | 140 |
| 08/30 19:00 | 42 | 66 | 0 | 1 | 9 | 206 | 424 |
| 08/30 18:00 | 45 | 60 | 0 | 1 | 6 | 226 | 351 |
| 08/30 17:00 | 43 | 63 | 0 | 4 | 10 | 186 | 697 |
| 08/30 16:00 | 44 | 61 | 0 | 3 | 8 | 210 | 839 |
| 08/30 15:00 | 41 | 62 | 0 | 2 | 10 | 188 | 888 |
| 08/30 14:00 | 43 | 56 | 0 | 3 | 10 | 198 | 775 |
| 08/30 13:00 | 41 | 54 | 0 | 4 | 14 | 198 | 367 |
| 08/30 12:00 | 40 | 49 | 0 | 4 | 11 | 196 | 285 |
| 08/30 11:00 | 42 | 44 | 0 | 7 | 22 | 227 | 405 |
| 08/30 10:00 | 43 | 39 | 1 | 10 | 25 | 303 | 373 |
| 08/30 09:00 | 39 | 31 | 0 | 4 | 14 | 324 | 119 |
| 08/30 08:00 | 37 | 27 | 0 | 3 | 11 | 249 | 19 |
| 08/30 07:00 | 35 | 28 | 0 | 4 | 14 | 289 | 4 |
| 08/30 06:00 | 35 | 27 | 0 | 3 | 13 | 254 | 4 |
| 08/30 05:00 | 33 | 33 | 0 | 4 | 16 | 236 | 4 |
| 08/30 04:00 | 34 | 35 | 0 | 1 | 6 | 250 | 4 |
| 08/30 03:00 | 33 | 36 | 0 | 1 | 6 | 223 | 4 |
| 08/30 02:00 | 33 | 36 | 0 | 2 | 6 | 299 | 4 |
| 08/30 01:00 | 33 | 40 | 0 | 5 | 16 | 246 | 3 |
| 08/30 00:00 | 30 | 48 | 0 | 7 | 13 | 229 | 3 |
| 08/29 23:00 | 30 | 57 | 0 | 7 | 15 | 220 | 4 |
| 08/29 22:00 | 26 | 83 | 0 | 5 | 16 | 238 | 4 |
| 08/29 21:00 | 32 | 45 | 0 | 8 | 25 | 327 | 12 |
| 08/29 20:00 | 28 | 100 | 0 | 0 | 6 | 302 | 108 |
| 08/29 19:00 | 29 | 94 | 0 | 1 | 6 | 343 | 361 |
| 08/29 18:00 | 31 | 95 | 0 | 1 | 8 | 275 | 432 |
| 08/29 17:00 | 32 | 97 | 0 | 3 | 11 | 202 | 567 |
| 08/29 16:00 | 30 | 98 | 0 | 5 | 15 | 195 | 608 |
| 08/29 15:00 | 28 | 97 | 0 | 8 | 15 | 195 | 721 |
| 08/29 14:00 | 30 | 97 | 0 | 6 | 14 | 191 | 816 |
| 08/29 13:00 | 28 | 97 | 1 | 9 | 18 | 182 | 458 |
| 08/29 12:00 | 26 | 97 | 0 | 4 | 15 | 210 | 378 |
| 08/29 11:00 | 26 | 97 | 0 | 7 | 25 | 184 | 433 |
| 08/29 10:00 | 23 | 91 | 0 | 6 | 22 | 259 | 156 |
| 08/29 09:00 | 23 | 97 | 0 | 13 | 35 | 215 | 42 |
| 08/29 08:00 | 24 | 92 | 0 | 16 | 37 | 217 | 53 |
| 08/29 07:00 | 27 | 65 | 4 | 13 | 25 | 223 | 3 |
| 08/29 06:00 | 27 | 40 | 5 | 16 | 40 | 217 | 4 |
| 08/29 05:00 | 29 | 19 | 13 | 26 | 42 | 221 | 3 |
| 08/29 04:00 | 30 | 18 | 11 | 31 | 46 | 221 | 3 |
| 08/29 03:00 | 30 | 72 | 18 | 32 | 49 | 221 | 3 |
| 08/29 02:00 | 32 | 66 | 25 | 36 | 55 | 216 | 3 |
| 08/29 01:00 | 32 | 68 | 13 | 33 | 47 | 215 | 4 |
| 08/29 00:00 | 35 | 52 | 12 | 31 | 42 | 212 | 4 |
| 08/28 23:00 | 36 | 49 | 20 | 32 | 40 | 217 | 3 |
| 08/28 22:00 | 37 | 49 | 14 | 25 | 37 | 214 | 4 |
| 08/28 21:00 | 36 | 50 | 15 | 21 | 30 | 219 | 14 |
| 08/28 20:00 | 39 | 47 | 16 | 22 | 32 | 221 | 150 |
| 08/28 19:00 | 39 | 73 | 0 | 12 | 27 | 215 | 403 |
| 08/28 18:00 | 34 | 100 | 4 | 10 | 17 | 218 | 408 |
| 08/28 17:00 | 36 | 94 | 4 | 8 | 13 | 218 | 638 |
| 08/28 16:00 | 36 | 92 | 4 | 9 | 16 | 216 | 744 |
| 08/28 15:00 | 38 | 79 | 2 | 6 | 10 | 206 | 871 |
| 08/28 14:00 | 39 | 73 | 5 | 12 | 21 | 203 | 888 |
| 08/28 13:00 | 37 | 59 | 15 | 19 | 32 | 207 | 342 |
| 08/28 12:00 | 39 | 39 | 15 | 23 | 33 | 202 | 66 |
| 08/28 11:00 | 36 | 48 | 12 | 18 | 26 | 207 | 293 |
| 08/28 10:00 | 36 | 43 | 13 | 19 | 26 | 205 | 252 |
| 08/28 09:00 | 36 | 41 | 6 | 16 | 28 | 208 | 129 |
| 08/28 08:00 | 34 | 43 | 4 | 11 | 20 | 202 | 27 |
| 08/28 07:00 | 34 | 44 | 1 | 11 | 29 | 200 | 4 |
| 08/28 06:00 | 34 | 44 | 0 | 16 | 37 | 201 | 4 |
| 08/28 05:00 | 40 | 24 | 14 | 27 | 43 | 213 | 3 |
| 08/28 04:00 | 40 | 26 | 14 | 25 | 39 | 213 | 3 |
| 08/28 03:00 | 39 | 27 | 13 | 24 | 36 | 216 | 3 |
| 08/28 02:00 | 40 | 23 | 13 | 26 | 37 | 215 | 3 |
| 08/28 01:00 | 40 | 26 | 7 | 20 | 42 | 219 | 3 |
| 08/28 00:00 | 38 | 31 | 7 | 17 | 32 | 216 | 3 |
| 08/27 23:00 | 38 | 37 | 5 | 16 | 35 | 208 | 3 |
| 08/27 22:00 | 37 | 47 | 0 | 7 | 21 | 209 | 4 |
| 08/27 21:00 | 37 | 46 | 5 | 18 | 37 | 208 | 15 |
| 08/27 20:00 | 36 | 72 | 12 | 23 | 38 | 204 | 160 |
| 08/27 19:00 | 28 | 100 | 4 | 16 | 30 | 205 | 372 |
| 08/27 18:00 | 23 | 0 | 6 | 13 | 21 | 209 | 241 |
| 08/27 17:00 | 22 | 0 | 8 | 14 | 22 | 216 | 284 |
| 08/27 16:00 | 21 | 0 | 8 | 15 | 24 | 212 | 345 |
| 08/27 15:00 | 20 | 0 | 6 | 15 | 28 | 220 | 441 |
| 08/27 14:00 | 29 | 100 | 9 | 19 | 37 | 221 | 540 |
| 08/27 13:00 | 34 | 88 | 19 | 31 | 42 | 222 | 341 |
| 08/27 12:00 | 35 | 65 | 22 | 35 | 47 | 213 | 57 |
| 08/27 11:00 | 38 | 28 | 25 | 37 | 50 | 217 | 242 |
| 08/27 10:00 | 38 | 5 | 38 | 48 | 63 | 216 | 110 |
| 08/27 09:00 | 39 | 12 | 36 | 49 | 59 | 215 | 227 |
| 08/27 08:00 | 38 | 9 | 36 | 48 | 62 | 215 | 14 |
| 08/27 07:00 | 38 | 13 | 37 | 47 | 62 | 218 | 3 |
| 08/27 06:00 | 38 | 14 | 35 | 46 | 60 | 221 | 3 |
| 08/27 05:00 | 39 | 12 | 39 | 52 | 71 | 208 | 3 |
| 08/27 04:00 | 39 | 20 | 28 | 44 | 64 | 210 | 3 |
| 08/27 03:00 | 41 | 17 | 28 | 50 | 68 | 214 | 3 |
| 08/27 02:00 | 40 | 23 | 23 | 53 | 73 | 218 | 3 |
| 08/27 01:00 | 37 | 46 | 30 | 50 | 73 | 214 | 3 |
| 08/27 00:00 | 36 | 79 | 32 | 50 | 70 | 210 | 3 |
| 08/26 23:00 | 35 | 100 | 32 | 49 | 76 | 211 | 3 |
| 08/26 22:00 | 37 | 72 | 30 | 46 | 67 | 212 | 4 |
| 08/26 21:00 | 42 | 32 | 28 | 43 | 62 | 210 | 15 |
| 08/26 20:00 | 39 | 77 | 23 | 34 | 49 | 208 | 214 |
| 08/26 19:00 | 41 | 52 | 18 | 26 | 37 | 206 | 433 |
| 08/26 18:00 | 41 | 76 | 18 | 26 | 37 | 206 | 427 |
| 08/26 17:00 | 42 | 69 | 16 | 26 | 37 | 205 | 534 |
| 08/26 16:00 | 42 | 66 | 16 | 25 | 36 | 205 | 600 |
| 08/26 15:00 | 44 | 60 | 16 | 22 | 32 | 209 | 898 |
| 08/26 14:00 | 44 | 57 | 13 | 21 | 28 | 209 | 876 |
| 08/26 13:00 | 44 | 57 | 13 | 21 | 27 | 207 | 424 |
| 08/26 12:00 | 44 | 55 | 15 | 20 | 28 | 206 | 98 |
| 08/26 11:00 | 43 | 55 | 11 | 20 | 30 | 216 | 432 |
| 08/26 10:00 | 45 | 52 | 12 | 19 | 27 | 219 | 405 |
| 08/26 09:00 | 44 | 55 | 11 | 20 | 29 | 226 | 174 |
| 08/26 08:00 | 44 | 56 | 11 | 21 | 34 | 221 | 35 |
| 08/26 07:00 | 44 | 56 | 13 | 22 | 33 | 224 | 4 |
| 08/26 06:00 | 45 | 58 | 13 | 23 | 34 | 218 | 4 |
| 08/26 05:00 | 44 | 47 | 20 | 31 | 41 | 215 | 4 |
| 08/26 04:00 | 44 | 39 | 25 | 35 | 46 | 214 | 4 |
| 08/26 03:00 | 45 | 32 | 26 | 37 | 50 | 216 | 4 |
| 08/26 02:00 | 45 | 30 | 28 | 39 | 52 | 213 | 4 |
| 08/26 01:00 | 45 | 22 | 26 | 38 | 51 | 216 | 4 |
| 08/26 00:00 | 46 | 17 | 24 | 35 | 46 | 216 | 4 |
| 08/25 23:00 | 46 | 30 | 24 | 37 | 51 | 215 | 4 |
| 08/25 22:00 | 47 | 15 | 18 | 30 | 44 | 208 | 4 |
| 08/25 21:00 | 45 | 24 | 13 | 21 | 31 | 212 | 14 |
| 08/25 20:00 | 46 | 47 | 10 | 18 | 30 | 211 | 166 |
| 08/25 19:00 | 47 | 69 | 7 | 14 | 24 | 208 | 367 |
| 08/25 18:00 | 48 | 75 | 6 | 11 | 18 | 202 | 431 |
| 08/25 17:00 | 50 | 63 | 7 | 12 | 17 | 201 | 660 |
| 08/25 16:00 | 50 | 58 | 10 | 15 | 20 | 200 | 737 |
| 08/25 15:00 | 51 | 50 | 4 | 10 | 20 | 190 | 885 |
| 08/25 14:00 | 50 | 46 | 6 | 13 | 23 | 210 | 882 |
| 08/25 13:00 | 49 | 44 | 8 | 15 | 23 | 207 | 422 |
| 08/25 12:00 | 49 | 39 | 11 | 16 | 30 | 211 | 67 |
| 08/25 11:00 | 47 | 48 | 11 | 16 | 21 | 213 | 375 |
| 08/25 10:00 | 46 | 51 | 14 | 18 | 23 | 214 | 360 |
| 08/25 09:00 | 45 | 50 | 13 | 20 | 28 | 217 | 124 |
| 08/25 08:00 | 44 | 44 | 16 | 21 | 30 | 216 | 29 |
| 08/25 07:00 | 44 | 44 | 18 | 26 | 33 | 217 | 4 |
| 08/25 06:00 | 44 | 39 | 19 | 27 | 42 | 216 | 4 |
| 08/25 05:00 | 45 | 34 | 18 | 27 | 37 | 218 | 4 |
| 08/25 04:00 | 45 | 34 | 20 | 27 | 39 | 216 | 4 |
| 08/25 03:00 | 46 | 28 | 20 | 28 | 39 | 214 | 4 |
| 08/25 02:00 | 46 | 28 | 13 | 23 | 37 | 221 | 4 |
| 08/25 01:00 | 46 | 39 | 15 | 24 | 32 | 218 | 4 |
| 08/25 00:00 | 46 | 23 | 13 | 20 | 27 | 217 | 4 |
| 08/24 23:00 | 45 | 28 | 8 | 14 | 23 | 215 | 4 |
| 08/24 22:00 | 45 | 34 | 8 | 14 | 22 | 205 | 5 |
| 08/24 21:00 | 44 | 60 | 4 | 8 | 17 | 201 | 23 |

